This is the latest recevied weather packets stored in our database for station/object K9YK-13. If no packets are shown the sender has not sent any weather packets the latest 10 day(s).
| Time | Temp. | Humidity | Pressure | Rain* | Wind** | Luminosity | Snow |
|---|---|---|---|---|---|---|---|
| 1777888270 | 9.44° C | 85% | 0 hPa | 0 mm | - | - | - |
| 1777887670 | 9.44° C | 89% | 0 hPa | 0 mm | - | - | - |
| 1777887370 | 10° C | 80% | 0 hPa | 0 mm | - | - | - |
| 1777887070 | 10° C | 80% | 0 hPa | 0 mm | - | - | - |
| 1777886770 | 10° C | 84% | 0 hPa | 0 mm | - | - | - |
| 1777886470 | 10° C | 87% | 0 hPa | 0 mm | - | - | - |
| 1777886170 | 10° C | 88% | 0 hPa | 0 mm | - | - | - |
| 1777885870 | 10° C | 86% | 0 hPa | 0 mm | - | - | - |
| 1777885570 | 10.56° C | 80% | 0 hPa | 0 mm | - | - | - |
| 1777885270 | 9.44° C | 81% | 0 hPa | 0 mm | - | - | - |
| 1777884970 | 8.89° C | 82% | 0 hPa | 0 mm | - | - | - |
| 1777884670 | 10° C | 85% | 0 hPa | 0 mm | - | - | - |
| 1777884370 | 9.44° C | 88% | 0 hPa | 0 mm | - | - | - |
| 1777884070 | 10° C | 82% | 0 hPa | 0 mm | - | - | - |
| 1777883770 | 10.56° C | 79% | 0 hPa | 0 mm | - | - | - |
| 1777883470 | 10° C | 80% | 0 hPa | 0 mm | - | - | - |
| 1777883170 | 10.56° C | 81% | 0 hPa | 0 mm | - | - | - |
| 1777882870 | 9.44° C | 82% | 0 hPa | 0 mm | - | - | - |
| 1777882570 | 10° C | 87% | 0 hPa | 0 mm | - | - | - |
| 1777882270 | 10° C | 78% | 0 hPa | 0 mm | - | - | - |
| 1777881970 | 10° C | 78% | 0 hPa | 0 mm | - | - | - |
| 1777881670 | 10° C | 79% | 0 hPa | 0 mm | - | - | - |
| 1777881370 | 10° C | 81% | 0 hPa | 0 mm | - | - | - |
| 1777881071 | 9.44° C | 85% | 0 hPa | 0 mm | - | - | - |
| 1777880470 | 10° C | 77% | 0 hPa | 0 mm | - | - | - |
* Rain latest hour (hover to see other rain measurements)
** Current wind speed in m/s (hover to see current wind gust speed)